Yakima, WA
on Tuesday, November 6, 2012

Tuesday
Previous Day Next Day
Daily Summary
 ActualAverageRecord
Temperature
Mean Temperature °F 41°F  
Max Temperature 62°F 53°F 71°F (2006)
Min Temperature 37°F 29°F 11°F (2003)
Degree Days
Heating Degree Days 15 24  
Month to date heating degree days 85 139  
Since 1 July heating degree days 622 843  
Cooling Degree Days 0 0  
Month to date cooling degree days 0 0  
Year to date cooling degree days 667 472  
Moisture
Dew Point 40°F   
Average Humidity 70    
Maximum Humidity 92    
Minimum Humidity 47    
Precipitation
Precipitation 0.00 in 0.03 in 0.41 in (1980)
Month to date precipitation 0.06 0.17  
Year to date precipitation 6.59 5.84  
Snow
Snow 0.00 in 0.00 in 0.10 in (1973)
Month to date snowfall 0.0 0.1  
Year to date snowfall 21.5 8.8  
Since 1 July snowfall 0.0 0.2  
Snow Depth 0.00 in   
Wind
Wind Speed 3 mph   
Max Wind Speed 9 mph   
Max Gust Speed 14 mph   
Visibility 10 miles   
Events     

Key: T is trace of precipitation, MM is missing value
Source: NWS Daily Summary
Time(PST)TemperatureDew PointHumidity Pressure Visibility Wind DirectionWind SpeedGust SpeedPrecipitationEvents Conditions
12:53 AM 41.0°F 37.0°F 86% 30.19 in 10.0 miles West 5.8 mph - N/A   Clear
1:53 AM 42.1°F 37.0°F 82% 30.17 in 10.0 miles West 3.5 mph - N/A   Clear
2:53 AM 39.9°F 36.0°F 86% 30.16 in 10.0 miles WNW 5.8 mph - N/A   Clear
3:53 AM 39.9°F 37.0°F 89% 30.15 in 10.0 miles West 9.2 mph - N/A   Clear
4:53 AM 39.0°F 36.0°F 89% 30.14 in 10.0 miles West 5.8 mph - N/A   Clear
5:53 AM 37.9°F 34.0°F 86% 30.13 in 10.0 miles West 5.8 mph - N/A   Clear
6:53 AM 37.0°F 34.0°F 89% 30.12 in 10.0 miles West 4.6 mph - N/A   Clear
7:53 AM 41.0°F 37.9°F 89% 30.12 in 10.0 miles West 5.8 mph - N/A   Clear
8:53 AM 48.0°F 39.9°F 74% 30.10 in 10.0 miles West 4.6 mph - N/A   Clear
9:53 AM 52.0°F 39.9°F 63% 30.07 in 10.0 miles Calm Calm - N/A   Clear
10:53 AM 54.0°F 39.9°F 59% 30.04 in 10.0 miles Calm Calm - N/A   Clear
11:53 AM 55.9°F 39.0°F 53% 30.00 in 10.0 miles Calm Calm - N/A   Partly Cloudy
12:53 PM 59.0°F 39.9°F 49% 29.97 in 10.0 miles Calm Calm - N/A   Clear
1:53 PM 60.1°F 41.0°F 49% 29.95 in 10.0 miles Calm Calm - N/A   Clear
2:53 PM 61.0°F 43.0°F 52% 29.93 in 10.0 miles Calm Calm - N/A   Partly Cloudy
3:53 PM 60.1°F 44.1°F 55% 29.92 in 10.0 miles Calm Calm - N/A   Partly Cloudy
4:53 PM 57.0°F 45.0°F 64% 29.91 in 10.0 miles Calm Calm - N/A   Clear
5:53 PM 53.1°F 45.0°F 74% 29.91 in 10.0 miles WSW 3.5 mph - N/A   Clear
6:53 PM 46.9°F 42.1°F 83% 29.91 in 10.0 miles WNW 5.8 mph - N/A   Clear
7:53 PM 46.0°F 41.0°F 83% 29.91 in 10.0 miles West 4.6 mph - N/A   Clear
8:53 PM 45.0°F 41.0°F 86% 29.92 in 10.0 miles WNW 4.6 mph - N/A   Clear
9:53 PM 46.9°F 42.1°F 83% 29.92 in 10.0 miles West 3.5 mph - N/A   Mostly Cloudy
10:53 PM 48.0°F 43.0°F 83% 29.93 in 10.0 miles Calm Calm - N/A   Overcast
11:53 PM 55.9°F 41.0°F 57% 29.93 in 10.0 miles WSW 9.2 mph - N/A   Overcast
Moon Phase
Nov. 06 Nov. 06 Nov. 13 Nov. 20 Nov. 28
Sunrise:06:52 AM (PST) Moon Rise:11:28 PM (PST)11/6
Sunset:04:38 PM (PST) Moon Set:12:43 PM (PST)11/6

Copyright © 2014 The Weather Underground, Inc.